Date,TemperatureHighF,TemperatureAvgF,TemperatureLowF,DewpointHighF,DewpointAvgF,DewpointLowF,HumidityHigh,HumidityAvg,HumidityLow,PressureMaxIn,PressureMinIn,WindSpeedMaxMPH,WindSpeedAvgMPH,GustSpeedMaxMPH,PrecipitationSumIn
2013-1-1,75.4,61.8,49.5,57.9,54.5,49.2,99,80,53,32.44,32.25,10,2,10,0.00
2013-1-2,76.8,65.9,58.1,66.3,60.9,55.2,95,84,67,32.29,32.20,8,2,9,0.00
2013-1-3,63.7,57.6,49.3,61.5,56.1,48.5,98,95,87,32.46,32.28,10,2,11,0.15
2013-1-4,61.3,51.5,46.0,51.0,47.6,44.4,98,87,67,32.54,32.43,12,3,14,0.01
2013-1-5,69.3,54.7,41.4,52.9,46.7,38.2,98,76,51,32.54,32.45,7,2,9,0.00
2013-1-6,67.5,58.6,54.9,57.3,53.5,49.9,96,83,68,32.47,32.32,10,2,11,0.04
2013-1-7,65.1,55.4,47.3,53.6,48.2,41.8,96,77,60,32.50,32.39,9,3,12,0.00
2013-1-8,77.7,64.7,55.4,66.1,59.1,50.6,93,83,65,32.48,32.39,8,2,9,0.00
2013-1-9,80.6,70.0,62.4,69.5,65.2,60.3,97,85,64,32.56,32.45,7,2,8,0.00
2013-1-10,68.2,67.9,67.6,66.4,65.8,65.3,94,93,92,32.57,32.55,3,1,3,0.00
2013-1-11,83.5,69.3,59.5,68.2,60.9,58.4,97,78,46,32.42,32.39,5,1,5,0.00
2013-1-12,84.2,69.6,58.5,66.7,59.8,57.0,96,75,45,32.43,32.34,6,1,7,0.00
2013-1-16,82.0,68.9,60.4,64.8,60.0,56.1,93,75,46,0.00,40.00,6,1,6,0.00
2013-1-17,72.0,58.0,42.1,62.3,51.6,32.0,94,80,57,0.00,40.00,19,4,19,0.02
2013-1-18,61.3,49.4,40.5,44.5,38.7,31.2,76,67,53,0.00,40.00,14,5,14,0.01
2013-1-19,70.5,57.0,46.4,53.9,47.9,39.9,88,73,53,0.00,40.00,8,3,8,0.00
2013-1-20,74.5,61.6,51.3,54.0,50.3,46.6,90,69,40,0.00,40.00,7,2,7,0.00
2013-1-21,72.5,58.6,49.1,49.6,47.1,41.6,90,68,44,0.00,40.00,11,2,11,0.00
2013-1-22,61.7,51.7,43.7,41.6,33.5,25.2,70,52,26,32.50,32.44,8,3,8,0.00
2013-1-23,64.4,49.0,33.8,40.6,31.6,25.4,81,55,25,32.61,32.50,11,2,12,0.00
2013-1-24,73.8,57.4,43.7,51.4,45.4,37.6,87,67,37,32.52,32.41,15,3,17,0.00
2013-1-25,74.3,57.9,52.5,54.4,50.1,47.1,87,76,47,32.53,32.48,5,2,5,0.00
2013-1-26,70.5,56.1,46.4,53.9,46.4,39.0,85,71,53,0.00,40.00,8,3,8,0.00
2013-1-27,74.5,62.0,54.9,54.0,50.9,46.6,90,70,40,0.00,40.00,7,2,7,0.00
2013-1-28,72.5,58.4,49.1,49.6,47.6,45.1,90,70,44,0.00,40.00,11,2,11,0.00
2013-1-29,61.9,53.0,45.0,45.2,34.3,25.2,70,52,26,0.00,40.00,8,3,8,0.00
2013-1-30,64.4,48.9,33.8,39.6,31.0,25.4,79,53,25,0.00,40.00,11,2,11,0.00
2013-1-31,73.8,56.1,43.7,51.4,44.4,37.6,87,67,37,0.00,40.00,15,3,15,0.00
2013-2-1,74.3,56.0,45.1,54.3,45.9,31.7,87,70,45,32.52,32.50,5,2,5,0.19
2013-2-2,70.0,51.0,35.1,37.2,29.6,21.3,82,46,23,32.55,32.37,5,2,7,0.00
2013-2-3,68.4,52.7,40.1,43.1,31.6,20.5,83,50,16,32.40,32.26,14,5,15,0.00
2013-2-4,67.3,52.9,39.0,43.9,38.1,32.2,92,62,28,32.33,32.26,6,1,9,0.00
2013-2-5,72.3,57.2,41.2,51.4,44.0,37.8,93,65,35,32.31,32.22,4,1,7,0.00
2013-2-6,71.6,61.8,56.3,57.9,54.2,47.5,87,76,61,32.35,32.26,5,1,6,0.01
2013-2-7,81.1,65.6,59.2,63.9,60.5,54.9,93,85,47,32.31,32.07,6,2,11,0.37
2013-2-8,72.9,63.6,55.4,61.9,54.6,51.3,87,74,52,32.28,32.08,13,6,14,0.00
2013-2-9,72.9,60.4,48.4,51.3,45.6,42.0,89,59,40,32.45,32.38,10,3,10,0.00
2013-2-10,79.5,63.3,49.5,55.7,51.5,43.4,89,68,42,32.49,32.38,11,2,11,0.00
2013-2-11,86.0,69.6,59.4,61.3,57.8,53.9,88,68,42,32.40,32.29,11,2,11,0.00
2013-2-12,87.1,71.0,62.6,65.4,62.8,59.6,95,77,44,32.30,32.11,11,2,11,0.00
2013-2-13,79.5,70.6,61.7,68.7,63.5,51.6,86,78,66,32.16,32.04,16,3,16,0.07
2013-2-14,63.0,54.1,46.9,53.5,47.9,43.9,90,80,67,32.29,32.12,12,3,12,0.07
2013-2-15,72.3,53.0,39.7,44.4,40.7,36.6,92,67,30,32.30,32.17,9,2,9,0.01
2013-2-16,57.2,49.4,40.8,44.7,37.1,15.8,90,65,32,32.34,32.12,25,6,25,0.00
2013-2-17,49.6,36.3,29.8,21.5,16.9,8.1,65,46,22,32.56,32.35,17,4,17,0.00
2013-2-18,70.5,50.0,27.5,41.4,29.8,17.0,83,51,22,32.60,32.44,11,2,11,0.00
2013-2-19,73.8,60.4,42.6,57.9,49.0,38.3,88,68,37,32.44,29.98,15,3,15,0.72
2013-2-20,73.8,57.6,47.5,57.5,44.9,34.4,87,64,37,30.26,29.85,15,3,15,0.72
2013-2-21,82.2,60.1,44.1,56.4,46.4,40.0,89,64,37,30.22,29.91,8,1,8,0.00
2013-2-22,89.6,71.0,57.4,64.5,58.6,50.9,89,69,36,30.08,29.71,8,2,8,0.31
2013-2-23,84.2,71.3,61.2,67.2,62.9,56.3,94,77,51,29.88,29.56,12,2,12,0.20
2013-2-24,75.4,64.0,59.4,62.0,58.2,54.1,92,82,59,29.95,29.70,11,2,11,0.08
2013-2-25,76.8,63.7,58.1,63.6,58.6,53.9,90,84,64,29.89,29.64,11,2,11,0.21
2013-2-26,80.4,67.6,58.8,66.1,59.3,50.4,92,77,36,29.83,29.48,17,3,17,0.34
2013-2-27,70.2,59.9,52.9,53.8,45.8,40.2,84,62,36,30.06,29.78,15,3,15,0.00
2013-2-28,74.3,58.9,46.9,45.5,42.2,28.8,85,57,23,30.12,29.77,21,5,21,0.00
2013-3-1,62.8,53.5,46.9,44.0,35.1,28.8,77,51,29,30.19,29.91,17,6,17,0.00
2013-3-2,57.2,46.4,37.2,35.2,28.6,18.3,79,53,24,30.29,30.01,25,6,25,0.01
2013-3-3,51.1,39.5,32.7,30.2,26.3,24.0,78,60,36,30.39,30.08,21,6,21,0.00
2013-3-4,68.2,47.8,30.4,37.7,26.3,16.8,76,49,19,30.58,30.12,11,2,11,0.00
2013-3-5,79.3,59.0,39.7,55.6,44.1,33.7,85,61,32,30.36,29.80,11,2,11,0.00
2013-3-6,64.6,52.8,42.6,56.3,27.8,20.0,75,41,21,30.20,29.81,29,10,29,0.00
2013-3-7,70.0,50.3,35.6,39.3,32.2,27.8,76,53,24,30.40,30.09,13,3,13,0.00
2013-3-8,78.6,55.7,37.8,46.8,37.1,23.7,88,58,16,30.36,30.02,17,2,17,0.00
2013-3-9,75.6,57.2,40.5,50.2,44.0,38.9,94,66,33,30.30,30.03,11,2,11,0.00
2013-3-10,82.0,64.3,49.8,55.8,50.0,44.5,91,64,31,30.22,29.77,15,3,15,0.00
2013-3-11,79.5,65.5,51.3,56.6,53.2,48.4,91,67,42,30.09,29.61,9,1,9,0.00
2013-3-12,72.7,64.5,52.9,63.7,55.8,43.3,90,74,48,29.93,29.70,15,3,15,0.11
2013-3-13,73.2,58.8,47.5,43.7,33.5,24.4,76,45,17,30.25,29.89,19,6,19,0.11
2013-3-14,66.9,52.6,41.2,33.4,27.2,22.4,72,40,21,30.24,29.71,17,4,17,0.00
2013-3-15,78.8,55.1,36.5,40.2,33.9,23.2,89,52,22,30.18,29.72,14,2,14,0.00
2013-3-16,84.2,62.9,46.8,51.2,43.8,37.4,90,55,22,30.02,29.49,14,2,14,0.00
2013-3-17,78.6,61.5,46.2,55.7,47.3,40.3,92,63,31,29.95,29.61,8,1,8,0.04
2013-3-18,81.5,68.1,57.9,62.0,58.3,55.0,91,73,47,29.76,29.37,6,1,6,0.05
2013-3-19,83.8,69.6,59.5,62.0,58.1,55.4,91,69,42,29.79,29.29,25,3,25,0.21
2013-3-20,75.6,63.6,53.6,58.3,53.4,48.4,91,71,45,29.80,29.36,12,2,12,0.11
2013-3-21,69.8,54.0,39.9,52.6,33.8,20.1,94,55,16,29.87,29.54,18,4,18,0.01
2013-3-22,73.8,57.3,44.4,45.4,39.9,32.5,76,54,31,29.95,29.64,11,2,11,0.00
2013-3-23,71.6,60.9,51.4,67.2,56.2,44.6,91,84,71,29.75,29.39,14,2,14,1.19
2013-3-24,85.8,71.4,63.1,70.1,64.1,59.3,91,79,49,29.47,28.90,14,3,14,0.38
2013-3-25,68.7,59.1,47.1,59.3,35.3,20.3,82,46,17,29.81,29.36,23,8,23,0.00
2013-3-26,58.5,47.3,37.8,31.8,25.9,17.7,77,46,24,30.22,29.77,21,6,21,0.00
2013-3-27,63.3,48.3,34.3,33.4,28.6,23.5,77,50,23,30.77,29.84,15,4,15,0.00
2013-3-28,71.8,53.6,37.2,37.7,30.6,23.1,81,48,17,30.26,29.86,18,3,18,0.00
2013-3-29,78.3,57.7,40.3,44.2,36.7,29.6,90,54,19,30.25,29.76,10,2,10,0.00
2013-3-30,82.0,62.4,43.5,49.2,41.9,38.3,84,52,23,30.14,29.62,8,2,8,0.00
2013-3-31,86.0,67.2,51.8,55.4,50.0,43.0,81,57,34,29.90,29.45,8,2,8,0.00
2013-4-1,84.6,71.6,59.7,62.9,57.3,54.4,85,63,43,29.73,29.20,18,3,18,0.01
2013-4-2,88.2,69.2,54.0,56.1,49.4,41.3,90,57,23,30.16,29.39,10,2,10,0.00
2013-4-3,84.0,66.2,55.0,62.1,56.8,48.8,89,74,43,30.22,29.86,16,2,16,0.92
2013-4-4,77.4,69.8,63.3,67.5,62.2,58.6,90,78,61,30.12,29.70,10,2,10,0.05
2013-4-5,70.5,61.5,54.3,63.6,56.0,47.8,88,82,75,30.21,29.83,15,3,15,0.06
2013-4-6,78.1,60.8,46.9,54.5,49.9,44.2,91,70,44,30.38,30.06,11,3,11,0.00
2013-4-7,84.6,66.7,54.0,62.8,54.1,49.3,90,67,38,30.33,29.95,11,2,11,0.00
2013-4-8,90.9,70.6,55.0,62.9,55.5,50.3,90,64,26,30.29,29.80,12,2,12,0.00
2013-4-9,90.3,72.3,58.6,64.9,58.3,54.8,89,65,35,30.25,29.86,12,2,12,0.00
2013-4-10,90.1,72.6,56.8,63.4,58.9,53.4,89,65,34,30.17,29.68,9,2,9,0.00
2013-4-11,93.6,77.4,66.9,68.3,65.5,60.9,88,69,38,30.00,29.45,14,2,14,0.04
2013-4-12,87.1,77.1,72.3,69.7,65.8,61.1,83,69,49,29.98,29.57,15,3,15,0.00
2013-4-13,88.9,73.8,62.8,63.8,52.0,40.6,79,50,23,30.05,29.57,11,3,11,0.00
2013-4-14,82.6,67.1,58.6,64.2,58.7,52.6,90,76,49,30.05,29.75,18,2,18,1.09
2013-4-15,91.4,73.5,60.3,66.9,60.9,56.6,90,68,41,30.21,29.69,17,2,17,0.01
2013-4-16,89.8,74.3,63.1,65.5,61.9,58.8,88,68,43,30.22,29.83,13,2,13,0.00
2013-4-17,87.4,73.3,65.5,66.9,62.3,59.1,89,71,43,30.18,29.84,10,2,10,0.00
2013-4-18,94.1,76.8,65.1,66.6,62.1,56.0,89,64,32,30.09,29.61,8,2,8,0.00
2013-4-19,90.9,77.5,68.5,71.3,66.5,63.0,87,70,45,30.05,29.53,17,2,17,0.34
2013-4-20,75.4,56.1,50.4,66.9,50.4,46.0,87,81,63,30.30,29.93,28,4,28,0.47
2013-4-21,71.4,62.5,50.9,59.8,54.9,47.0,88,77,61,30.31,30.09,14,3,14,0.18
2013-4-22,68.5,63.1,56.8,60.3,56.5,50.9,87,79,69,30.30,30.09,13,4,13,0.08
2013-4-23,82.9,66.8,55.8,57.9,53.9,51.3,88,66,38,30.29,29.90,10,3,10,0.00
2013-4-24,91.0,71.2,53.1,60.4,55.2,49.5,89,62,28,30.24,29.78,9,2,9,0.00
2013-4-25,90.5,75.2,60.4,63.9,59.6,56.1,86,61,35,30.18,29.81,12,2,12,0.00
2013-4-26,87.4,74.5,64.8,63.4,59.0,50.1,78,59,43,30.32,29.91,13,3,13,0.00
2013-4-27,90.0,73.2,60.8,61.9,56.9,53.5,85,60,33,30.39,29.77,11,3,11,0.00
2013-4-28,84.6,72.4,62.6,66.9,60.5,56.6,87,68,47,30.24,29.73,8,2,8,0.14
2013-4-29,91.4,72.8,64.0,63.9,60.8,56.9,87,68,33,30.11,29.61,11,1,11,0.08
2013-4-30,93.0,72.8,63.7,66.2,62.3,58.4,89,73,36,30.08,29.68,14,2,14,0.50
2013-5-1,78.8,69.7,64.4,65.4,62.2,59.3,89,78,60,30.10,29.86,12,3,12,0.01
2013-5-2,75.6,69.0,66.0,65.7,62.7,59.5,88,80,68,30.08,29.75,20,3,20,1.31
2013-5-3,69.8,66.2,64.4,63.9,61.7,57.4,89,85,75,29.95,29.73,21,4,21,3.13
2013-5-4,72.7,68.4,64.6,65.5,63.3,58.8,88,84,76,29.91,29.53,11,2,11,0.45
2013-5-5,80.4,67.2,57.7,64.9,52.7,44.3,88,64,31,29.95,29.55,17,5,17,0.01
2013-5-6,79.3,65.1,53.2,55.5,47.5,41.6,79,56,33,30.08,29.66,17,4,17,0.00
2013-5-7,80.8,66.9,55.4,58.1,52.4,46.4,83,61,36,30.07,29.69,15,3,15,0.00
2013-5-8,84.2,70.3,57.4,59.4,55.5,53.1,87,62,39,30.26,29.81,14,3,14,0.00
2013-5-9,92.7,74.1,61.7,63.5,57.8,52.8,89,61,31,30.26,29.68,10,2,10,0.00
2013-5-10,95.5,77.1,61.3,65.6,59.5,54.3,85,58,30,30.19,29.63,8,1,8,0.00
2013-5-11,91.6,74.9,66.0,69.0,64.2,59.5,87,71,44,30.16,29.72,17,2,17,0.17
2013-5-12,88.5,75.0,66.7,66.6,63.2,60.0,89,69,43,30.10,29.65,15,4,15,0.01
2013-5-13,83.7,70.4,58.1,61.3,47.6,36.0,81,48,21,30.28,29.78,17,4,17,0.00
2013-5-14,86.2,68.4,51.4,50.3,41.2,30.5,67,42,16,30.36,29.88,13,2,13,0.00
2013-5-15,95.0,73.2,54.9,62.0,53.1,48.1,87,55,25,30.31,29.69,8,1,8,0.00
2013-5-16,92.7,76.1,61.0,64.1,58.7,53.2,79,57,35,30.16,29.79,9,1,9,0.00
2013-5-17,97.0,78.4,64.0,64.5,61.3,57.3,85,59,31,30.17,29.73,10,2,10,0.00
2013-5-18,97.3,80.4,66.9,68.4,64.5,62.1,87,62,33,30.19,29.59,9,2,9,0.30
2013-5-19,96.3,77.4,64.4,70.9,66.3,60.8,89,71,41,30.13,29.70,11,2,11,0.04
2013-5-20,91.8,76.6,68.0,69.4,66.0,62.1,88,72,45,30.12,29.67,15,1,15,0.13
2013-5-21,89.6,73.3,66.4,71.7,66.1,63.1,90,80,46,29.99,29.64,13,1,13,0.39
2013-5-22,90.9,75.5,67.5,72.9,66.3,63.9,89,75,43,29.97,29.55,10,1,10,0.43
2013-5-23,86.7,73.2,68.5,70.4,66.0,62.5,89,79,54,29.96,29.74,5,1,5,0.00
2013-5-24,91.9,79.8,70.2,68.1,61.8,52.8,89,58,31,30.00,29.57,19,4,19,0.00
2013-5-25,89.4,75.1,61.5,58.8,55.3,50.0,82,54,27,30.14,29.74,13,2,13,0.00
2013-5-26,90.7,74.3,57.4,62.5,54.8,48.7,86,55,26,30.31,29.85,11,2,11,0.00
2013-5-27,90.9,74.9,59.5,64.6,58.7,54.9,88,61,31,30.21,29.79,11,2,11,0.00
2013-5-28,92.3,76.6,63.5,67.3,62.6,58.4,85,64,41,30.18,29.78,13,3,13,0.00
2013-5-29,91.6,79.1,68.2,70.4,66.4,64.2,90,68,44,30.16,29.70,14,3,14,0.00
2013-5-30,91.2,80.0,70.7,70.1,66.8,63.6,89,67,43,30.13,29.70,16,4,16,0.00
2013-5-31,90.1,78.6,69.4,68.8,66.3,64.0,88,68,45,30.10,29.68,14,3,14,0.01
2013-6-1,81.7,72.0,70.3,69.5,67.1,66.0,88,85,66,30.13,29.99,8,1,8,0.00
2013-6-2,80.2,76.7,74.7,72.5,71.5,69.8,88,84,74,29.85,29.67,6,1,6,0.06
2013-6-3,97.3,79.9,72.1,75.2,70.9,67.8,91,76,43,29.95,29.46,17,2,17,0.65
2013-6-4,90.9,78.1,72.9,74.5,70.6,67.5,90,79,51,30.09,29.58,17,1,17,0.04
2013-6-5,87.8,75.3,71.8,73.2,68.4,66.5,88,80,55,30.10,29.68,7,1,7,0.40
2013-6-6,79.0,73.7,71.2,72.6,69.5,67.1,90,87,79,29.96,29.31,14,3,14,1.24
2013-6-7,94.1,80.0,70.2,72.8,68.0,65.1,87,69,45,29.78,29.44,14,3,14,0.13
2013-6-8,97.9,81.4,71.2,73.5,69.2,63.0,88,70,38,30.00,29.70,9,1,9,0.09
2013-6-9,93.7,78.6,71.2,72.9,70.0,67.5,89,76,49,30.13,29.78,11,1,11,0.07
2013-6-10,87.3,76.3,73.9,73.5,71.2,70.2,88,85,61,30.17,29.97,6,1,6,0.01
2013-6-11,75.9,75.5,74.5,70.7,70.5,70.0,86,84,84,30.15,30.07,1,0,1,0.00
2013-6-14,96.1,82.5,73.0,74.8,71.4,67.9,88,70,46,29.75,29.49,13,2,13,0.30
2013-6-15,90.5,82.8,73.9,69.9,65.8,62.7,85,57,46,30.10,29.79,12,3,12,0.01
2013-6-16,94.5,81.1,65.3,72.8,68.6,62.0,89,67,47,30.24,29.87,11,2,11,0.01
2013-6-17,99.1,84.2,75.4,72.6,71.0,68.9,86,67,41,30.27,29.56,9,2,9,0.00
2013-6-18,98.8,84.1,64.4,71.7,67.4,60.8,89,60,37,30.12,29.67,11,2,11,0.01
2013-6-19,100.9,85.6,74.8,73.3,70.0,65.7,88,62,36,30.01,29.61,11,2,11,0.00
2013-6-20,97.9,79.8,74.3,74.0,70.3,65.2,88,75,39,30.10,29.67,21,2,21,0.11
2013-6-21,91.8,76.2,70.9,74.5,69.9,66.5,89,81,54,30.14,29.79,9,1,13,1.18
2013-6-22,92.8,77.3,69.8,75.6,69.6,66.6,91,78,47,30.18,29.81,12,1,12,0.05
2013-6-23,88.9,75.3,72.5,75.7,70.6,68.8,90,86,60,30.23,30.08,4,0,4,0.00
2013-6-24,98.8,83.9,72.9,73.7,69.4,65.4,89,65,36,29.92,29.65,8,2,8,0.00
2013-6-25,99.5,83.8,73.4,74.0,69.6,65.3,88,66,34,29.88,29.69,9,2,9,0.01
2013-6-26,99.5,81.1,72.9,74.3,69.2,65.3,89,70,37,29.83,29.67,7,1,7,0.00
2013-6-27,96.3,81.8,70.7,74.3,70.0,66.0,87,69,44,29.78,29.53,9,1,9,0.02
2013-6-28,94.6,81.7,77.0,74.0,70.9,63.9,85,71,47,29.65,29.49,9,2,9,0.00
2013-6-29,90.1,80.2,75.0,72.8,70.6,67.7,83,73,53,29.63,29.43,8,2,8,0.05
2013-6-30,96.1,81.0,72.5,74.8,71.3,66.7,89,74,45,29.95,29.54,17,2,17,0.67
2013-7-2,88.5,85.7,80.8,72.7,71.5,70.2,73,63,57,29.90,29.83,6,2,6,0.05
2013-7-10,85.1,80.7,73.8,70.4,68.9,67.9,89,68,58,30.00,29.77,10,4,10,0.22
2013-7-11,97.3,85.6,75.0,72.6,69.6,66.7,83,60,43,29.97,29.66,12,2,12,0.01
2013-7-12,93.4,79.1,72.9,73.2,70.1,66.9,88,75,47,29.98,29.57,17,1,17,0.21
2013-7-13,91.4,76.0,71.2,74.3,69.5,67.4,90,81,51,29.97,29.63,17,1,17,0.35
2013-7-14,88.3,77.8,71.4,72.5,69.4,67.7,90,76,54,30.02,29.58,11,2,11,0.00
2013-7-15,84.6,77.3,71.6,74.3,70.3,67.6,89,79,64,30.16,29.75,11,2,11,0.12
2013-7-16,93.0,81.5,73.0,73.8,69.9,67.3,89,70,46,30.26,29.80,15,3,15,0.00
2013-7-17,94.8,85.0,74.8,75.1,69.1,65.7,89,61,41,30.24,29.76,13,3,13,0.00
2013-7-18,94.5,82.5,73.9,73.0,69.3,66.5,88,66,45,30.26,29.63,8,2,8,0.00
2013-7-19,93.9,78.0,71.6,71.9,68.9,66.6,87,75,45,30.19,29.81,7,1,7,0.52
2013-7-20,91.0,76.9,71.4,73.4,69.1,66.7,89,78,54,30.22,29.77,11,1,11,0.01
2013-7-21,91.9,78.9,71.6,73.8,69.8,66.9,88,75,51,30.18,29.80,12,2,12,0.08
2013-7-22,95.0,78.6,73.9,73.7,71.2,67.7,88,79,49,30.21,29.84,11,1,11,0.41
2013-7-23,89.8,76.2,72.7,73.3,70.6,67.6,88,83,57,30.08,29.77,12,1,12,0.44
2013-7-24,90.0,78.6,71.8,74.4,71.0,66.3,88,78,58,29.98,29.62,9,3,9,0.26
2013-7-25,90.5,81.3,72.3,72.3,70.2,67.9,88,70,51,29.91,29.59,12,3,12,0.07
2013-7-26,98.4,83.3,73.4,75.5,71.2,67.7,88,69,42,29.96,29.60,11,1,11,0.12
2013-7-27,101.5,84.2,74.8,74.8,70.7,66.2,88,66,35,29.90,29.49,11,1,11,0.00
2013-7-28,93.6,80.0,75.0,72.5,70.2,67.4,86,73,47,29.97,29.66,7,1,7,0.00
2013-7-29,102.9,84.4,72.1,74.3,69.6,67.1,88,65,35,30.08,29.67,8,1,8,0.00
2013-7-30,101.1,82.6,75.2,74.5,71.5,69.1,85,71,39,30.14,29.81,8,1,8,0.12
2013-7-31,96.3,81.4,70.9,75.7,71.3,66.2,89,74,45,30.12,29.72,11,1,11,0.93
2013-8-1,96.3,80.1,71.8,74.8,69.9,65.2,89,73,45,30.22,29.72,12,1,12,0.01
2013-8-2,92.5,76.3,71.8,74.9,69.5,67.4,88,81,50,29.99,29.89,3,0,3,0.00
2013-8-3,94.5,82.5,74.8,75.0,71.3,69.5,88,70,48,29.84,29.71,11,2,11,0.00
2013-8-4,96.3,84.3,77.0,74.0,72.2,70.3,85,68,47,29.83,29.58,10,3,10,0.00
2013-8-5,98.1,83.6,72.7,74.7,71.8,65.6,88,70,43,29.87,29.53,16,2,16,0.52
2013-8-6,99.5,80.5,73.8,76.4,72.3,67.4,90,78,41,29.99,29.61,15,1,15,0.57
2013-8-7,96.1,82.5,75.7,78.6,72.4,69.4,89,73,46,30.00,29.56,11,2,11,0.01
2013-8-8,102.4,83.7,76.3,75.8,72.5,70.2,88,71,41,29.96,29.58,6,1,6,0.07
2013-8-9,92.8,81.0,74.1,78.5,71.5,68.3,89,75,47,29.99,29.68,5,1,5,0.08
2013-8-10,97.3,82.8,74.1,73.8,71.1,69.1,89,70,42,30.05,29.75,8,1,8,0.00
2013-8-11,88.0,77.0,71.2,72.3,69.2,67.5,90,78,54,30.26,29.83,11,2,11,0.01
2013-8-12,84.6,77.1,71.6,74.3,69.9,67.5,89,79,64,30.39,29.95,7,2,7,0.12
2013-8-13,92.5,80.8,73.2,74.1,70.4,67.3,89,72,46,30.50,30.00,11,3,11,4.57
2013-8-14,101.8,85.2,75.9,75.4,71.6,68.6,87,66,40,30.16,29.74,13,2,13,0.00
2013-8-15,99.7,83.7,73.9,73.8,70.5,67.8,86,67,41,30.21,29.82,8,1,8,0.00
2013-8-16,93.2,80.0,74.1,73.1,71.0,68.2,86,75,48,30.25,29.91,12,1,12,0.06
2013-8-17,94.3,81.6,73.0,76.0,72.5,68.0,89,75,51,30.28,29.85,17,1,17,1.04
2013-8-18,94.1,79.8,72.5,79.6,72.3,68.9,90,79,51,30.37,29.96,10,1,10,0.40
2013-8-19,97.7,83.6,75.6,80.3,71.9,68.7,88,70,43,30.32,29.92,8,1,8,0.01
2013-8-20,97.5,83.1,74.1,75.5,70.8,68.1,87,68,42,30.39,29.90,8,2,8,0.01
2013-8-21,92.8,81.4,74.5,75.7,71.4,68.3,86,73,49,30.40,29.97,11,2,11,0.01
2013-8-22,93.9,78.5,74.5,74.4,71.1,67.6,85,79,50,30.39,30.14,11,1,11,0.08
2013-8-23,90.9,76.0,72.9,76.6,70.2,65.8,87,83,53,30.41,30.02,5,1,5,0.73
2013-8-24,89.4,78.8,73.0,73.9,70.3,67.7,87,76,55,30.39,30.02,9,1,9,0.01
2013-8-25,85.6,77.4,73.6,71.5,69.6,66.5,86,77,59,30.47,30.14,13,2,13,0.22
2013-8-26,92.3,79.7,72.0,70.8,67.9,66.4,85,69,45,30.43,29.97,11,2,11,0.01
2013-8-27,93.4,79.9,72.5,70.2,66.9,64.5,84,66,44,30.39,29.95,7,2,9,0.00
2013-8-28,95.4,80.1,69.8,72.0,66.3,63.6,83,65,40,30.30,29.92,8,1,8,0.00
2013-8-29,94.6,82.1,72.3,70.3,66.6,63.8,82,61,41,30.25,29.83,10,2,10,0.00
2013-8-30,100.8,84.8,74.5,72.0,69.4,67.0,83,62,38,30.24,29.85,7,1,7,0.01
2013-8-31,97.9,79.9,72.7,73.4,68.7,64.4,85,70,43,30.18,29.84,11,1,11,0.00
2013-9-1,97.7,82.8,73.2,72.9,69.1,67.4,84,66,39,30.24,29.89,7,1,7,0.00
2013-9-2,97.5,82.0,72.5,71.9,68.2,66.3,84,65,42,30.20,29.78,10,2,10,0.00
2013-9-3,94.3,81.1,74.1,72.8,70.4,67.8,85,71,47,30.17,29.91,5,1,5,0.05
2013-9-4,99.3,83.7,74.1,76.7,69.7,66.4,85,65,40,30.28,29.91,11,1,11,0.00
2013-9-5,100.2,84.6,72.7,71.5,68.6,65.3,84,61,39,30.30,29.92,8,1,8,0.00
2013-9-6,97.2,81.7,70.0,72.7,68.5,63.9,83,66,42,30.24,29.84,17,1,17,0.74
2013-9-7,95.7,85.1,72.7,69.9,66.1,64.0,77,54,39,30.22,29.83,9,2,9,0.01
2013-9-8,96.6,77.4,70.0,70.1,65.2,61.6,86,68,35,30.23,29.85,9,1,9,0.00
2013-9-9,95.0,80.6,69.3,70.4,65.1,63.0,84,62,36,30.26,29.89,11,2,11,0.00
2013-9-10,93.0,83.7,69.4,70.0,65.5,63.0,83,56,39,30.24,29.92,13,3,13,0.00
2013-9-11,93.4,82.9,73.2,69.9,67.3,64.0,79,60,45,30.29,29.94,12,3,12,0.00
2013-9-12,93.2,80.2,72.1,71.8,67.9,65.3,85,68,47,30.28,29.75,10,1,10,0.02
2013-9-13,95.4,82.0,72.0,70.6,66.4,61.4,83,62,38,30.12,29.64,9,1,9,0.00
2013-9-14,98.8,83.3,70.9,71.5,67.2,64.1,82,61,38,30.04,29.73,8,1,8,0.06
2013-9-15,95.7,78.6,73.6,71.1,68.9,66.1,85,74,43,30.24,29.92,11,1,11,0.01
2013-9-16,98.4,83.7,74.5,72.7,69.0,65.5,86,64,36,30.27,29.85,11,2,11,0.00
2013-9-17,93.2,80.4,72.7,73.8,68.3,66.0,86,68,45,30.24,29.88,11,2,11,0.01
2013-9-18,87.8,78.0,72.0,70.0,66.7,62.9,80,69,51,30.21,29.94,17,3,17,0.01
2013-9-19,92.1,77.3,70.2,70.2,66.8,63.1,83,71,45,30.22,29.91,11,2,11,0.12
2013-9-20,92.3,77.3,68.2,71.3,65.0,63.2,86,68,43,30.20,29.82,8,1,8,0.01
2013-9-21,95.4,79.3,68.9,72.4,65.3,63.6,85,66,38,30.15,29.72,6,1,6,0.00
2013-9-22,84.6,76.3,72.5,70.5,68.0,66.5,83,76,60,30.13,29.76,11,2,11,0.15
2013-9-23,83.5,75.3,72.1,71.4,68.8,66.9,86,80,66,30.26,29.94,5,1,5,0.22
2013-9-24,86.0,76.4,73.8,74.0,70.3,68.8,86,82,62,30.25,29.82,7,1,7,0.38
2013-9-25,89.4,77.3,71.1,70.8,68.6,65.8,87,75,52,30.11,29.84,11,2,11,0.01
2013-9-26,88.2,76.7,70.7,70.6,67.1,62.0,86,73,51,30.21,29.77,17,4,17,0.00
2013-9-27,88.2,74.9,66.9,65.4,62.7,60.2,82,67,45,30.22,29.95,11,4,11,0.00
2013-9-28,79.3,72.8,69.4,66.4,63.7,60.2,83,73,61,30.32,30.06,12,3,12,0.15
2013-9-29,88.3,74.8,66.9,66.4,62.9,61.3,84,68,44,30.32,29.96,11,3,11,0.00
2013-9-30,88.9,75.3,68.5,67.5,63.0,60.0,83,67,47,30.30,29.98,10,2,10,0.00
2013-10-1,90.3,76.2,67.5,65.8,61.9,59.2,77,62,44,30.40,30.00,8,2,8,0.01
2013-10-2,89.2,74.9,64.2,64.2,61.3,58.6,85,65,42,30.40,30.07,11,2,11,0.00
2013-10-3,93.9,78.4,68.2,69.1,65.4,61.7,84,66,42,30.40,30.04,9,2,9,0.00
2013-10-4,97.5,79.8,70.7,72.7,66.6,63.2,85,66,36,30.40,30.01,7,1,7,0.00
2013-10-5,93.4,79.1,69.6,74.1,66.5,64.4,86,68,43,30.36,30.00,8,2,8,0.00
2013-10-6,96.8,80.7,70.7,73.4,67.3,64.6,86,66,41,30.24,29.90,7,1,7,0.00
2013-10-7,91.6,78.1,70.9,69.6,67.4,64.0,83,71,46,30.18,29.78,5,1,5,0.00
2013-10-8,84.0,74.8,67.6,69.2,65.7,60.0,79,74,58,30.30,29.94,14,4,14,0.08
2013-10-9,72.7,65.5,61.3,60.2,57.7,55.3,84,76,63,30.40,30.24,12,4,12,0.00
2013-10-10,88.3,71.2,60.1,62.3,57.6,55.6,86,66,34,30.40,30.03,11,2,11,0.00
2013-10-11,82.9,68.9,62.1,67.7,61.0,56.2,83,76,58,30.37,29.71,11,3,11,0.08
2013-10-12,88.9,74.4,62.1,63.8,57.9,55.2,82,59,34,30.14,29.77,12,3,12,0.00
2013-10-13,90.0,74.0,61.5,62.5,57.8,55.0,83,61,32,30.16,29.83,11,2,11,0.00
2013-10-14,82.9,71.8,64.4,64.3,61.3,59.8,86,70,50,30.20,29.90,12,3,12,0.00
2013-10-15,74.1,69.9,67.8,64.8,61.9,60.3,82,76,68,30.18,29.87,14,4,14,0.27
2013-10-16,89.8,74.2,64.8,67.3,63.1,59.5,85,70,45,30.11,29.75,7,2,8,0.00
2013-10-17,93.6,76.4,63.9,73.3,63.8,56.1,87,68,42,30.22,29.70,8,1,8,0.00
2013-10-18,91.2,73.7,67.5,72.8,65.0,58.1,86,76,46,30.18,29.90,5,0,5,0.27
2013-10-19,91.0,76.9,62.1,70.1,65.3,55.5,84,69,47,30.26,29.75,12,2,12,0.31
2013-10-20,85.1,74.1,67.1,67.1,61.8,58.0,83,66,47,30.13,29.98,9,2,9,0.01
2013-10-21,72.9,66.7,62.1,63.7,59.7,55.5,82,78,71,30.18,29.81,12,3,12,0.00
2013-10-22,88.9,75.8,66.7,70.6,67.1,57.8,85,75,53,30.16,29.67,8,2,8,0.67
2013-10-23,77.0,68.4,57.4,66.7,55.3,46.5,87,65,35,30.22,29.83,17,5,17,0.01
2013-10-24,76.6,60.2,52.7,48.5,43.1,38.1,82,55,27,30.40,30.20,11,2,11,0.00
2013-10-25,78.3,62.3,48.7,51.5,47.6,41.5,87,62,36,30.52,30.23,16,3,16,0.00
2013-10-26,78.6,61.4,46.2,51.8,46.2,41.7,85,61,31,30.51,30.15,9,2,9,0.00
2013-10-27,81.9,61.9,46.4,59.1,45.8,37.2,90,62,23,30.46,30.17,8,1,8,0.00
2013-10-28,86.0,66.4,52.0,58.0,53.1,47.5,87,66,35,30.44,30.14,9,1,9,0.00
2013-10-29,84.6,69.1,58.5,61.2,57.0,53.9,85,68,44,30.48,30.14,11,2,11,0.00
2013-10-30,86.2,71.4,61.3,62.9,59.6,56.1,84,68,44,30.43,30.07,9,2,9,0.00
2013-10-31,89.1,74.3,63.0,67.3,61.3,57.4,85,66,41,30.34,29.84,11,1,11,0.00
2013-11-1,87.1,75.4,66.7,67.4,64.1,60.6,82,69,46,30.14,29.77,9,2,9,0.00
2013-11-2,75.6,67.2,57.2,68.8,60.2,52.7,86,79,52,30.14,29.84,14,2,14,0.74
2013-11-3,74.7,61.4,51.1,52.9,45.9,38.5,85,59,28,30.44,30.13,15,4,15,0.00
2013-11-4,77.5,64.9,56.3,58.8,52.9,46.0,82,66,50,30.45,29.77,14,4,14,0.00
2013-11-5,69.8,64.7,62.1,59.7,57.1,55.5,82,76,67,30.02,29.79,12,6,12,0.00
2013-11-6,73.8,67.1,62.1,65.3,59.9,55.5,82,78,67,30.23,29.75,12,4,12,1.54
2013-11-7,83.1,71.9,66.9,64.0,60.9,57.3,82,69,45,30.27,29.88,11,2,11,0.00
2013-11-8,72.0,61.5,51.6,59.5,48.3,40.2,75,62,51,30.39,30.18,17,5,17,0.00
2013-11-9,79.0,65.2,55.0,59.0,53.5,47.6,84,67,46,30.43,30.12,11,2,11,0.00
2013-11-10,78.1,64.1,59.2,61.8,57.9,54.5,89,81,50,30.31,30.17,9,2,9,0.00
2013-11-11,82.4,66.4,54.0,60.7,55.8,49.9,87,71,47,30.29,29.94,8,1,8,0.00
2013-11-12,81.0,66.8,61.5,63.3,56.2,46.6,89,71,49,30.17,29.91,14,3,14,0.00
2013-11-13,61.5,50.5,43.5,46.5,38.0,32.2,70,62,52,30.64,30.17,17,6,17,0.00
2013-11-14,70.9,55.5,41.2,54.4,45.7,32.3,85,71,50,30.68,30.32,11,3,11,0.00
2013-11-15,68.0,61.6,55.2,60.7,56.5,50.8,88,83,74,30.36,30.06,5,1,5,0.12
2013-11-16,76.5,67.1,60.8,65.5,61.3,57.2,90,82,67,30.26,29.98,8,2,8,0.01
2013-11-17,82.4,70.1,63.1,68.4,64.4,55.6,88,82,62,30.19,29.95,8,1,8,0.10
2013-11-18,77.4,71.4,66.6,71.5,66.2,62.9,89,84,75,30.17,29.87,8,1,8,0.04
2013-11-19,73.4,64.8,57.0,66.5,52.9,41.9,88,66,50,30.25,30.01,13,4,13,0.00
2013-11-20,73.4,63.9,56.8,62.6,56.9,50.7,84,78,68,30.33,30.17,11,3,11,0.00
2013-11-21,75.9,67.6,63.5,66.1,61.0,58.6,86,79,65,30.42,30.22,11,3,11,0.01
2013-11-22,81.3,69.7,63.5,68.7,62.8,58.6,91,79,58,30.42,30.14,9,1,9,0.02
2013-11-23,84.4,70.4,60.8,72.7,60.3,55.6,90,72,47,30.36,29.66,13,3,13,1.85
2013-11-24,66.2,56.9,46.9,57.5,46.1,39.3,78,68,54,30.32,29.93,17,5,17,0.00
2013-11-25,74.7,60.4,47.8,55.8,49.6,41.3,84,69,47,30.32,29.96,14,3,14,0.00
2013-11-26,77.5,69.1,59.9,68.3,63.4,54.6,90,82,69,30.22,29.67,10,2,10,0.69
2013-11-27,70.3,53.7,37.2,66.5,46.9,32.2,90,78,64,30.73,29.88,23,7,23,0.06
2013-11-28,58.1,44.6,30.7,43.4,35.0,24.8,81,69,55,30.89,30.64,11,4,11,0.00
2013-11-29,67.5,54.4,43.5,50.4,44.3,38.7,84,70,47,30.85,30.64,12,3,12,0.00
2013-11-30,66.0,57.4,53.2,55.8,50.9,46.2,88,79,69,30.73,30.52,12,4,12,0.00
2013-12-1,74.7,61.3,52.2,58.5,53.8,48.1,91,78,52,30.55,30.22,11,2,11,0.00
2013-12-2,71.6,60.4,53.2,57.8,52.9,49.0,92,78,47,30.24,29.99,15,2,15,0.00
2013-12-3,78.4,62.4,48.0,63.0,53.5,46.3,94,75,47,30.34,30.09,8,1,8,0.00
2013-12-4,66.2,64.7,63.0,60.9,59.5,57.9,85,83,80,30.28,30.01,3,0,3,0.00
2013-12-5,86.0,70.3,58.5,72.0,60.8,55.5,91,74,47,30.32,30.08,4,0,7,0.00
2013-12-6,85.6,72.2,64.2,69.8,63.1,60.3,91,75,50,30.29,30.03,8,1,8,0.00
2013-12-7,85.6,73.4,65.3,70.6,64.0,61.2,90,74,49,30.31,30.03,4,1,7,0.00
2013-12-8,84.2,70.9,61.3,67.6,62.4,58.1,91,76,50,30.36,30.08,5,1,9,0.00
2013-12-9,85.5,72.6,63.1,70.4,63.7,60.5,92,75,51,30.30,30.02,7,1,7,0.00
2013-12-10,81.9,68.8,54.9,66.8,62.1,45.6,91,80,58,30.42,30.04,17,2,17,0.01
2013-12-11,69.6,59.1,50.0,57.4,50.0,40.6,80,72,61,30.52,30.33,8,3,8,0.00
2013-12-12,67.6,56.6,44.2,50.9,35.9,22.1,82,51,20,30.55,30.34,12,3,12,0.00
2013-12-13,69.4,54.9,40.8,53.3,46.5,37.4,90,75,53,30.66,30.29,12,2,12,0.00
2013-12-14,78.1,65.7,53.6,66.6,60.3,49.5,92,83,65,30.31,29.94,13,2,13,0.01
2013-12-15,68.0,60.5,47.3,64.5,55.1,40.8,94,83,66,30.35,29.94,23,4,23,1.00
2013-12-16,61.2,47.0,37.0,41.0,38.5,33.8,92,74,43,30.66,30.35,10,2,10,0.00
2013-12-17,70.5,50.5,37.4,44.2,39.2,35.6,95,70,33,30.65,30.40,8,1,8,0.00
2013-12-18,67.5,50.5,40.1,42.2,35.3,23.4,86,61,22,30.57,30.41,14,3,14,0.00
2013-12-19,76.1,53.8,37.0,54.2,45.6,34.1,96,77,44,30.66,30.40,9,1,9,0.00
2013-12-20,80.6,63.0,48.4,65.1,54.8,47.3,96,77,45,30.41,30.20,7,1,7,0.00
2013-12-21,85.1,71.0,60.1,69.0,62.2,56.8,95,76,49,30.29,30.05,11,2,11,0.00
2013-12-22,85.5,73.3,66.7,70.4,66.7,64.9,95,81,54,30.28,29.99,8,1,8,0.00
2013-12-23,83.1,73.0,64.8,69.9,66.7,60.1,94,81,58,30.28,29.94,19,2,19,0.00
2013-12-24,64.4,55.0,43.9,59.8,41.5,28.4,90,63,31,30.54,30.16,18,5,18,0.00
2013-12-25,67.1,51.4,37.8,54.2,42.9,28.9,89,73,53,30.55,30.35,11,4,11,0.00
2013-12-26,52.0,50.9,50.2,48.7,48.1,47.4,92,90,88,30.40,30.35,8,2,8,0.00
2013-12-29,71.8,67.7,57.7,68.6,64.3,55.1,94,89,83,30.17,29.95,8,2,8,0.00
2013-12-30,66.7,56.3,47.5,55.4,48.5,45.1,95,77,48,30.46,30.12,11,3,11,0.00
2013-12-31,66.0,56.5,51.6,50.3,48.4,45.6,92,75,52,30.60,30.44,8,1,8,0.00
2014-1-1,59.0,55.7,51.8,57.3,53.2,47.7,96,91,82,30.57,30.32,4,1,4,0.00
2014-1-2,64.8,60.3,53.2,63.6,58.6,46.2,98,94,75,30.33,30.00,17,3,17,0.12